Stündliche Wetter Otowo

Heute, 10 April, Samstag

Zeit Temperatur Niederschläge Wind Luftdruck Luftfeuchtigkeit
00:00 +4°C° 0 mm 3 m/S 751 mmHg 78%
01:00 +3°C° 0 mm 3 m/S 751 mmHg 78%
02:00 +4°C° 0 mm 2 m/S 750 mmHg 80%
03:00 +4°C° 0 mm 2 m/S 750 mmHg 81%
04:00 +4°C° 0 mm 2 m/S 750 mmHg 82%
05:00 +5°C° 0 mm 1 m/S 750 mmHg 80%
06:00 +6°C° 0 mm 1 m/S 751 mmHg 77%
07:00 +7°C° 0 mm 1 m/S 751 mmHg 74%
08:00 +7°C° 0.5 mm 1 m/S 751 mmHg 77%
09:00 +8°C° 0.5 mm 1 m/S 751 mmHg 80%
10:00 +8°C° 0.5 mm 1 m/S 752 mmHg 83%
11:00 +8°C° 0.8 mm 1 m/S 752 mmHg 85%
12:00 +7°C° 0.8 mm 1 m/S 752 mmHg 88%
13:00 +7°C° 0.8 mm 1 m/S 752 mmHg 90%
14:00 +7°C° 0 mm 1 m/S 753 mmHg 90%
15:00 +7°C° 0 mm 1 m/S 753 mmHg 89%
16:00 +7°C° 0 mm 1 m/S 753 mmHg 89%
17:00 +7°C° 0 mm 1 m/S 753 mmHg 90%
18:00 +7°C° 0 mm 1 m/S 753 mmHg 92%
19:00 +7°C° 0 mm 1 m/S 754 mmHg 93%
20:00 +5°C° 0 mm 2 m/S 754 mmHg 94%
21:00 +5°C° 0 mm 2 m/S 754 mmHg 94%
22:00 +5°C° 0 mm 2 m/S 754 mmHg 95%
23:00 +5°C° 0 mm 2 m/S 754 mmHg 95%

Morgen, 11 April, Sonntag

Zeit Temperatur Niederschläge Wind Luftdruck Luftfeuchtigkeit
00:00 +5°C° 0 mm 2 m/S 753 mmHg 95%
01:00 +4°C° 0 mm 3 m/S 753 mmHg 95%
02:00 +4°C° 0 mm 3 m/S 753 mmHg 95%
03:00 +4°C° 0 mm 3 m/S 753 mmHg 95%
04:00 +4°C° 0 mm 4 m/S 752 mmHg 95%
05:00 +5°C° 0 mm 4 m/S 752 mmHg 92%
06:00 +6°C° 0 mm 4 m/S 752 mmHg 89%
07:00 +6°C° 0 mm 5 m/S 752 mmHg 85%
08:00 +8°C° 0 mm 5 m/S 752 mmHg 78%
09:00 +10°C° 0 mm 6 m/S 751 mmHg 70%
10:00 +11°C° 0 mm 6 m/S 751 mmHg 62%
11:00 +13°C° 0 mm 6 m/S 751 mmHg 59%
12:00 +14°C° 0 mm 6 m/S 751 mmHg 55%
13:00 +15°C° 0 mm 6 m/S 751 mmHg 52%
14:00 +15°C° 0 mm 6 m/S 750 mmHg 54%
15:00 +15°C° 0 mm 6 m/S 750 mmHg 55%
16:00 +15°C° 0 mm 6 m/S 750 mmHg 56%
17:00 +14°C° 0 mm 5 m/S 750 mmHg 61%
18:00 +12°C° 0 mm 5 m/S 750 mmHg 66%
19:00 +10°C° 0 mm 5 m/S 750 mmHg 71%
20:00 +9°C° 0 mm 5 m/S 751 mmHg 74%
21:00 +8°C° 0 mm 5 m/S 751 mmHg 77%
22:00 +8°C° 0 mm 5 m/S 751 mmHg 80%
23:00 +7°C° 0 mm 4 m/S 751 mmHg 82%

übermorgen, 12 April, Montag

Zeit Temperatur Niederschläge Wind Luftdruck Luftfeuchtigkeit
00:00 +7°C° 0 mm 4 m/S 751 mmHg 85%
01:00 +7°C° 0 mm 3 m/S 751 mmHg 88%
02:00 +7°C° 0 mm 3 m/S 750 mmHg 88%
03:00 +7°C° 0 mm 3 m/S 750 mmHg 88%
04:00 +7°C° 0 mm 3 m/S 750 mmHg 88%
05:00 +7°C° 0 mm 3 m/S 750 mmHg 86%
06:00 +8°C° 0 mm 3 m/S 751 mmHg 85%
07:00 +9°C° 0 mm 3 m/S 751 mmHg 83%
08:00 +8°C° 0 mm 4 m/S 751 mmHg 84%
09:00 +8°C° 0 mm 4 m/S 752 mmHg 85%
10:00 +8°C° 0 mm 5 m/S 752 mmHg 85%
11:00 +7°C° 0 mm 5 m/S 753 mmHg 85%
12:00 +7°C° 0 mm 5 m/S 753 mmHg 84%
13:00 +5°C° 0 mm 6 m/S 754 mmHg 83%
14:00 +4°C° 0.1 mm 6 m/S 754 mmHg 85%
15:00 +3°C° 0.1 mm 6 m/S 754 mmHg 86%
16:00 +3°C° 0.1 mm 6 m/S 755 mmHg 87%
17:00 +2°C° 0.2 mm 6 m/S 755 mmHg 88%
18:00 +2°C° 0.2 mm 6 m/S 756 mmHg 90%
19:00 +1°C° 0.2 mm 6 m/S 756 mmHg 91%
20:00 +1°C° 0.1 mm 6 m/S 757 mmHg 86%
21:00 +1°C° 0.1 mm 5 m/S 757 mmHg 81%
22:00 +1°C° 0.1 mm 5 m/S 757 mmHg 76%
23:00 +1°C° 0 mm 4 m/S 757 mmHg 76%

13 April, Dienstag

Zeit Temperatur Niederschläge Wind Luftdruck Luftfeuchtigkeit
00:00 +2°C° 0 mm 3 m/S 757 mmHg 75%
01:00 +2°C° 0 mm 3 m/S 757 mmHg 75%
02:00 +2°C° 0 mm 3 m/S 758 mmHg 76%
03:00 +2°C° 0 mm 3 m/S 758 mmHg 76%
04:00 +2°C° 0 mm 3 m/S 758 mmHg 77%
05:00 +2°C° 0 mm 3 m/S 758 mmHg 76%
06:00 +1°C° 0 mm 4 m/S 758 mmHg 76%
07:00 +1°C° 0 mm 4 m/S 758 mmHg 75%
08:00 +3°C° 0 mm 4 m/S 758 mmHg 70%
09:00 +3°C° 0 mm 4 m/S 759 mmHg 66%
10:00 +4°C° 0 mm 4 m/S 759 mmHg 61%
11:00 +5°C° 0 mm 5 m/S 759 mmHg 54%
12:00 +6°C° 0 mm 5 m/S 758 mmHg 48%
13:00 +8°C° 0 mm 5 m/S 758 mmHg 41%
14:00 +8°C° 0 mm 5 m/S 758 mmHg 40%
15:00 +8°C° 0 mm 5 m/S 758 mmHg 39%
16:00 +8°C° 0 mm 5 m/S 757 mmHg 38%
17:00 +7°C° 0 mm 4 m/S 758 mmHg 43%
18:00 +6°C° 0 mm 4 m/S 758 mmHg 48%
19:00 +5°C° 0 mm 4 m/S 758 mmHg 54%
20:00 +4°C° 0 mm 3 m/S 758 mmHg 58%
21:00 +4°C° 0 mm 3 m/S 758 mmHg 62%
22:00 +3°C° 0 mm 3 m/S 758 mmHg 66%
23:00 +2°C° 0 mm 3 m/S 758 mmHg 69%

14 April, Mittwoch

Zeit Temperatur Niederschläge Wind Luftdruck Luftfeuchtigkeit
00:00 +2°C° 0 mm 3 m/S 758 mmHg 71%
01:00 +2°C° 0 mm 3 m/S 758 mmHg 73%
02:00 +1°C° 0 mm 3 m/S 758 mmHg 74%
03:00 +2°C° 0 mm 2 m/S 758 mmHg 76%
04:00 +2°C° 0 mm 2 m/S 759 mmHg 77%
05:00 +1°C° 0 mm 3 m/S 759 mmHg 76%
06:00 +2°C° 0 mm 3 m/S 759 mmHg 75%
07:00 +1°C° 0 mm 4 m/S 759 mmHg 74%
08:00 +3°C° 0 mm 4 m/S 759 mmHg 68%
09:00 +5°C° 0 mm 4 m/S 759 mmHg 62%
10:00 +6°C° 0 mm 4 m/S 759 mmHg 57%
11:00 +6°C° 0.1 mm 5 m/S 758 mmHg 52%
12:00 +7°C° 0.1 mm 5 m/S 758 mmHg 48%
13:00 +8°C° 0.1 mm 5 m/S 758 mmHg 44%
14:00 +7°C° 0.2 mm 5 m/S 758 mmHg 46%
15:00 +7°C° 0.2 mm 5 m/S 757 mmHg 49%
16:00 +7°C° 0.2 mm 5 m/S 757 mmHg 51%
17:00 +6°C° 0.1 mm 5 m/S 757 mmHg 54%
18:00 +5°C° 0.1 mm 5 m/S 758 mmHg 57%
19:00 +3°C° 0.1 mm 5 m/S 758 mmHg 60%
20:00 +2°C° 0 mm 5 m/S 758 mmHg 62%
21:00 +1°C° 0 mm 4 m/S 758 mmHg 65%
22:00 +1°C° 0 mm 4 m/S 758 mmHg 68%
23:00 0°C° 0 mm 4 m/S 758 mmHg 68%

15 April, Donnerstag

Zeit Temperatur Niederschläge Wind Luftdruck Luftfeuchtigkeit
00:00 0°C° 0 mm 5 m/S 758 mmHg 69%
01:00 -1°C° 0 mm 5 m/S 758 mmHg 70%
02:00 -1°C° 0 mm 5 m/S 758 mmHg 70%
03:00 -1°C° 0 mm 5 m/S 758 mmHg 70%
04:00 -1°C° 0 mm 5 m/S 758 mmHg 70%
05:00 0°C° 0 mm 5 m/S 758 mmHg 70%
06:00 -1°C° 0 mm 6 m/S 759 mmHg 70%
07:00 -1°C° 0 mm 6 m/S 759 mmHg 70%
08:00 +1°C° 0 mm 6 m/S 759 mmHg 65%
09:00 +2°C° 0 mm 6 m/S 759 mmHg 60%
10:00 +2°C° 0 mm 7 m/S 759 mmHg 56%
11:00 +3°C° 0 mm 7 m/S 759 mmHg 56%
12:00 +3°C° 0 mm 7 m/S 759 mmHg 56%
13:00 +3°C° 0 mm 7 m/S 758 mmHg 56%
14:00 +3°C° 0.2 mm 7 m/S 758 mmHg 62%
15:00 +3°C° 0.2 mm 6 m/S 758 mmHg 68%
16:00 +3°C° 0.2 mm 6 m/S 758 mmHg 73%
17:00 +2°C° 0.3 mm 6 m/S 758 mmHg 76%
18:00 +2°C° 0.3 mm 6 m/S 758 mmHg 78%
19:00 +2°C° 0.3 mm 5 m/S 758 mmHg 81%
20:00 +2°C° 0.2 mm 5 m/S 759 mmHg 83%
21:00 +1°C° 0.2 mm 5 m/S 759 mmHg 86%
22:00 +1°C° 0.2 mm 5 m/S 759 mmHg 89%
23:00 +1°C° 0.2 mm 5 m/S 759 mmHg 88%
Mehr zeigen

Wir brauchen deine Erlaubnis

Meteoprog und unser Service Anbieter werden persönliche Daten aufbewahren, so wie Cookies, Geräte Bezeichnung oder ähnliche Technologien von deinem Gerät und Prozess, so wie Persönliche Daten Inhalte und Werbungen, genauso wie social Media und den Verkehr zu analysieren.

  • Aufbewahrung und/oder Zugang zu deiner Geräte Informationen.

    Cookies, Geräte Bezeichnung oder andere Informationen, können aufbewahrt oder Zugang zu deinem Gerät erhalten, für den Grund, der oben angegeben wird.

  • Personalisierte Werbung und Inhalte, Messungen, Einblick in das Publikum und Produkt Entwicklung.

    Werbungen und Inhalte können personalisiert werden, basierend auf ein Profil. Mehr Daten können besser personalisierte Werbungen und Inhalte hinzufügen. Werbung und Inhalte können gezeigt und gemessen werden. Einblicke über das Publikum, welche die Werbung gesehen haben und den Inhalt, können abgeleitet werden. So wie Daten können genutzt werden, um es zu verbessern oder die Benutzer Erfahrung zu verbessern das System und die Software.

Wenn du “Ich stimme zu” klickst, erlaubst du uns, die Cookies zu benutzen die Geräte Bezeichnung, den Web oder ähnliche Technologien zu benutzen. Deine Settings, können in deinem Gerät bei deinem Browser geändert werden.

Für den bestimmten Zweck, berechtigten Interessen beruhen darauf, mehr als auf den Inhalt. Du kannst mehr darüber in unseren Privaten und Cookie Politik lesen.